| time (UTC) | temp F | wind direction | speed knots | gust knots | rain 1hr in | rain 24hr in | rain mn in | humidity % | barometer mb |
| 20260506201519 | 56 | 193 | 1.7 | 7.8 | 0.01 | 0.07 | 0.07 | 91 | 1008.3 |
| 20260506200012 | 56 | 177 | 0.9 | 5.2 | 0.02 | 0.07 | 0.07 | 90 | 1008.2 |
| 20260506194511 | 56 | 175 | 2.6 | 6.1 | 0.04 | 0.06 | 0.06 | 90 | 1008.4 |
| 20260506193007 | 56 | 154 | 0.0 | 3.5 | 0.06 | 0.06 | 0.06 | 91 | 1008.7 |
| 20260506191507 | 56 | 238 | 1.7 | 6.1 | 0.06 | 0.06 | 0.06 | 89 | 1008.9 |
| 20260506190005 | 57 | 213 | 1.7 | 6.1 | 0.05 | 0.05 | 0.05 | 89 | 1008.8 |
| 20260506184502 | 58 | 173 | 3.5 | 9.6 | 0.02 | 0.02 | 0.02 | 88 | 1009.1 |
| 20260506183111 | 58 | 182 | 1.7 | 9.6 | 0.00 | 0.00 | 0.00 | 85 | 1009.2 |
| 20260506181601 | 59 | 321 | 1.7 | 6.1 | 0.00 | 0.00 | 0.00 | 82 | 1009.5 |
| 20260506180057 | 60 | 200 | 1.7 | 7.0 | 0.00 | 0.00 | 0.00 | 80 | 1009.9 |
| 20260506174608 | 60 | 317 | 0.9 | 5.2 | 0.00 | 0.00 | 0.00 | 79 | 1010.0 |
| 20260506173057 | 61 | 273 | 0.0 | 4.3 | 0.00 | 0.00 | 0.00 | 77 | 1010.2 |
| 20260506171602 | 61 | 248 | 0.9 | 3.5 | 0.00 | 0.00 | 0.00 | 78 | 1010.1 |
| 20260506170052 | 61 | 191 | 2.6 | 7.8 | 0.00 | 0.00 | 0.00 | 77 | 1010.5 |
| 20260506164557 | 62 | 165 | 0.9 | 6.1 | 0.00 | 0.00 | 0.00 | 75 | 1010.5 |
| 20260506163104 | 62 | 193 | 2.6 | 8.7 | 0.00 | 0.00 | 0.00 | 75 | 1010.5 |
| 20260506161549 | 63 | 270 | 0.9 | 7.8 | 0.00 | 0.00 | 0.00 | 75 | 1010.9 |
| 20260506160051 | 62 | 166 | 2.6 | 13.0 | 0.00 | 0.00 | 0.00 | 76 | 1011.1 |
| 20260506154552 | 63 | 264 | 5.2 | 16.5 | 0.00 | 0.00 | 0.00 | 75 | 1011.3 |
| 20260506153050 | 63 | 189 | 4.3 | 12.2 | 0.00 | 0.00 | 0.00 | 75 | 1011.3 |
| 20260506151547 | 64 | 329 | 2.6 | 12.2 | 0.00 | 0.00 | 0.00 | 73 | 1011.2 |
| 20260506150045 | 64 | 205 | 3.5 | 11.3 | 0.00 | 0.00 | 0.00 | 73 | 1011.2 |
| 20260506144545 | 63 | 169 | 5.2 | 14.8 | 0.00 | 0.00 | 0.00 | 74 | 1011.2 |
| 20260506143042 | 62 | 285 | 2.6 | 11.3 | 0.00 | 0.00 | 0.00 | 77 | 1011.5 |
| 20260506141541 | 62 | 208 | 1.7 | 11.3 | 0.00 | 0.00 | 0.00 | 76 | 1011.3 |
| 20260506140041 | 62 | 34 | 4.3 | 13.9 | 0.00 | 0.00 | 0.00 | 76 | 1011.2 |
| 20260506134540 | 61 | 315 | 2.6 | 10.4 | 0.00 | 0.00 | 0.00 | 77 | 1011.1 |
| 20260506133041 | 63 | 239 | 0.9 | 10.4 | 0.00 | 0.00 | 0.00 | 76 | 1010.9 |
| 20260506131538 | 62 | 248 | 2.6 | 8.7 | 0.00 | 0.00 | 0.00 | 77 | 1011.2 |
| 20260506130038 | 62 | 197 | 5.2 | 13.0 | 0.00 | 0.00 | 0.00 | 77 | 1011.5 |
| 20260506124532 | 61 | 271 | 1.7 | 10.4 | 0.00 | 0.00 | 0.00 | 78 | 1011.5 |
| 20260506123031 | 61 | 256 | 1.7 | 9.6 | 0.00 | 0.00 | 0.00 | 79 | 1011.5 |
| 20260506121530 | 60 | 201 | 2.6 | 8.7 | 0.00 | 0.00 | 0.00 | 80 | 1011.6 |
| 20260506120028 | 60 | 226 | 2.6 | 9.6 | 0.00 | 0.00 | 0.00 | 81 | 1011.4 |
| 20260506114525 | 59 | 183 | 2.6 | 10.4 | 0.00 | 0.00 | 0.00 | 82 | 1011.5 |
| 20260506113025 | 59 | 171 | 2.6 | 9.6 | 0.00 | 0.00 | 0.00 | 82 | 1011.5 |
| 20260506111528 | 58 | 251 | 1.7 | 7.8 | 0.00 | 0.00 | 0.00 | 83 | 1011.5 |
| 20260506110022 | 58 | 274 | 1.7 | 8.7 | 0.00 | 0.00 | 0.00 | 85 | 1011.7 |
| 20260506104522 | 57 | 163 | 0.9 | 8.7 | 0.00 | 0.00 | 0.00 | 86 | 1011.4 |
| 20260506103020 | 57 | 267 | 2.6 | 8.7 | 0.00 | 0.00 | 0.00 | 86 | 1011.5 |
| 20260506101519 | 57 | 208 | 2.6 | 5.2 | 0.00 | 0.00 | 0.00 | 86 | 1011.5 |
| 20260506100017 | 57 | 199 | 2.6 | 7.8 | 0.00 | 0.00 | 0.00 | 86 | 1011.3 |
| 20260506094517 | 57 | 297 | 2.6 | 7.8 | 0.00 | 0.00 | 0.00 | 87 | 1011.2 |
| 20260506093014 | 57 | 265 | 1.7 | 6.1 | 0.00 | 0.00 | 0.00 | 87 | 1011.3 |
| 20260506091514 | 57 | 251 | 1.7 | 7.8 | 0.00 | 0.00 | 0.00 | 87 | 1011.3 |
| 20260506090011 | 57 | 205 | 1.7 | 7.0 | 0.00 | 0.00 | 0.00 | 86 | 1011.4 |
| 20260506084510 | 57 | 176 | 1.7 | 9.6 | 0.00 | 0.00 | 0.00 | 86 | 1011.5 |
| 20260506083015 | 57 | 255 | 1.7 | 4.3 | 0.00 | 0.00 | 0.00 | 85 | 1011.5 |
| 20260506081508 | 57 | 196 | 0.9 | 8.7 | 0.00 | 0.00 | 0.00 | 85 | 1011.5 |
| 20260506073005 | 57 | 227 | 0.9 | 7.0 | 0.00 | 0.00 | 0.00 | 84 | 1011.8 |
| 20260506071503 | 57 | 252 | 0.9 | 7.0 | 0.00 | 0.00 | 0.00 | 84 | 1011.7 |
| 20260506061554 | 57 | 197 | 2.6 | 7.8 | 0.00 | 0.00 | 0.00 | 84 | 1012.1 |
| 20260506050103 | 58 | 283 | 1.7 | 7.0 | 0.00 | 0.00 | 0.00 | 81 | 1012.5 |
| 20260506044545 | 58 | 254 | 0.9 | 6.1 | 0.00 | 0.00 | 0.00 | 80 | 1012.6 |
| 20260506043040 | 58 | 252 | 0.9 | 5.2 | 0.00 | 0.00 | 0.00 | 79 | 1012.6 |
| 20260506041552 | 59 | 339 | 1.7 | 7.0 | 0.00 | 0.00 | 0.00 | 79 | 1012.6 |
| 20260506040035 | 59 | 234 | 2.6 | 13.0 | 0.00 | 0.00 | 0.00 | 78 | 1012.5 |
| 20260506034548 | 59 | 293 | 1.7 | 10.4 | 0.00 | 0.00 | 0.00 | 78 | 1012.7 |
| 20260506033033 | 58 | 266 | 2.6 | 7.0 | 0.00 | 0.00 | 0.00 | 78 | 1012.5 |
| 20260506031533 | 58 | 194 | 0.9 | 5.2 | 0.00 | 0.00 | 0.00 | 77 | 1012.3 |
| 20260506030036 | 59 | 249 | 1.7 | 5.2 | 0.00 | 0.00 | 0.00 | 76 | 1012.3 |
| 20260506024533 | 59 | 319 | 0.9 | 6.1 | 0.00 | 0.00 | 0.00 | 76 | 1012.4 |
| 20260506023030 | 59 | 272 | 0.9 | 4.3 | 0.00 | 0.00 | 0.00 | 76 | 1012.2 |
| 20260506021529 | 59 | 284 | 1.7 | 5.2 | 0.00 | 0.00 | 0.00 | 75 | 1012.3 |
| 20260506020027 | 59 | 289 | 0.9 | 2.6 | 0.00 | 0.00 | 0.00 | 75 | 1012.2 |
| 20260506014527 | 59 | 336 | 1.7 | 8.7 | 0.00 | 0.00 | 0.00 | 74 | 1012.1 |
| 20260506013037 | 59 | 268 | 1.7 | 6.1 | 0.00 | 0.00 | 0.00 | 74 | 1012.0 |
| 20260506011527 | 59 | 244 | 2.6 | 7.8 | 0.00 | 0.00 | 0.00 | 74 | 1011.6 |
| 20260506010027 | 58 | 216 | 1.7 | 5.2 | 0.00 | 0.00 | 0.00 | 75 | 1011.7 |
| 20260506004523 | 59 | 266 | 2.6 | 6.1 | 0.00 | 0.00 | 0.00 | 75 | 1011.5 |
| 20260506003024 | 59 | 118 | 2.6 | 8.7 | 0.00 | 0.00 | 0.00 | 74 | 1011.2 |
| 20260506001523 | 59 | 291 | 0.9 | 6.1 | 0.00 | 0.00 | 0.00 | 74 | 1010.9 |
| 20260506000023 | 59 | 322 | 3.5 | 13.9 | 0.00 | 0.00 | 0.00 | 74 | 1010.6 |
| 20260505234522 | 59 | 199 | 0.9 | 6.1 | 0.00 | 0.00 | 0.00 | 74 | 1010.2 |
| 20260505233026 | 59 | 149 | 0.9 | 5.2 | 0.00 | 0.00 | 0.00 | 74 | 1010.3 |
| 20260505231523 | 59 | 106 | 0.9 | 7.0 | 0.00 | 0.00 | 0.00 | 73 | 1010.9 |
| 20260505230020 | 60 | 283 | 0.9 | 4.3 | 0.00 | 0.00 | 0.00 | 72 | 1010.7 |
| 20260505224520 | 61 | 293 | 2.6 | 9.6 | 0.00 | 0.00 | 0.00 | 70 | 1010.6 |
| 20260505223019 | 62 | 140 | 2.6 | 8.7 | 0.00 | 0.00 | 0.00 | 69 | 1010.4 |
| 20260505221519 | 61 | 153 | 3.5 | 7.8 | 0.00 | 0.00 | 0.00 | 68 | 1010.2 |
| 20260505220030 | 62 | 308 | 1.7 | 9.6 | 0.00 | 0.00 | 0.00 | 67 | 1010.2 |
| 20260505214522 | 63 | 300 | 1.7 | 5.2 | 0.00 | 0.00 | 0.00 | 67 | 1010.4 |
| 20260505213017 | 64 | 81 | 0.9 | 7.0 | 0.00 | 0.00 | 0.00 | 65 | 1010.5 |
| 20260505211516 | 65 | 198 | 2.6 | 7.0 | 0.00 | 0.00 | 0.00 | 63 | 1010.0 |
| 20260505210015 | 65 | 286 | 3.5 | 7.8 | 0.00 | 0.00 | 0.00 | 64 | 1010.1 |
| 20260505204514 | 66 | 175 | 2.6 | 7.8 | 0.00 | 0.00 | 0.00 | 63 | 1009.9 |
| 20260505203014 | 67 | 313 | 2.6 | 8.7 | 0.00 | 0.00 | 0.00 | 61 | 1009.9 |